Location: Cran-Gévrier
(45.9039°N, 6.1012°E)
Time: 04:48:09
(UTC+00:00)

Cosmos 540 Rocket - Pass Details

Date: 09 February 2023
Orbit: 740 x 751 km, 74.1° (Epoch: 29 March)

Event Time Altitude Azimuth Distance (km) Brightness Sun altitude
Rises 17:33:01 0° 334° (NNW) 3,203 6.9 -7.6°
Reaches altitude 10° 17:35:25 10° 330° (NNW) 2,272 6.2 -8.0°
Maximum altitude 17:40:24 53° 255° (WSW) 913 4.4 -8.8°
Drops below altitude 10° 17:45:21 10° 179° (S) 2,249 6.1 -9.7°
Sets 17:47:44 0° 174° (S) 3,166 6.8 -10.1°
